This is the latest recevied weather packets stored in our database for station/object KE4ODN. If no packets are shown the sender has not sent any weather packets the latest 10 day(s).
| Time | Temp. | Humidity | Pressure | Rain* | Wind** | Luminosity | Snow |
|---|---|---|---|---|---|---|---|
| 1777568404 | 20.56° C | 70% | 1013.3 hPa | 0 mm | - | 798 W/m² | - |
| 1777568185 | 20.56° C | 76% | 1013.3 hPa | 0 mm | - | 580 W/m² | - |
| 1777566244 | 20.56° C | 72% | 1013.1 hPa | 0 mm | - | 417 W/m² | - |
| 1777565284 | 19.44° C | 77% | 1013.3 hPa | 0 mm | - | 719 W/m² | - |
| 1777564324 | 19.44° C | 75% | 1013.2 hPa | 0 mm | - | 577 W/m² | - |
| 1777564105 | 19.44° C | 77% | 1013.2 hPa | 0 mm | - | 624 W/m² | - |
| 1777563364 | 18.89° C | 79% | 1013.4 hPa | 0 mm | - | 353 W/m² | - |
| 1777561945 | 17.78° C | 87% | 1013.7 hPa | 0 mm | - | 258 W/m² | - |
| 1777559524 | 16.67° C | 85% | 1013.1 hPa | 0 mm | - | 241 W/m² | - |
| 1777555204 | 16.11° C | 94% | 1012.6 hPa | 0 mm | - | 42 W/m² | - |
| 1777553065 | 16.11° C | 94% | 1012.8 hPa | 0 mm | - | 25 W/m² | - |
| 1777551364 | 15.56° C | 94% | 1012.2 hPa | 0 mm | - | 26 W/m² | - |
| 1777549204 | 15.56° C | 95% | 1011.9 hPa | 0 mm | - | 12 W/m² | - |
| 1777548505 | 15.56° C | 94% | 1011.5 hPa | 0 mm | - | 11 W/m² | - |
| 1777548244 | 15.56° C | 94% | 1011.6 hPa | 0 mm | - | 9 W/m² | - |
| 1777546084 | 16.11° C | 95% | 1011.3 hPa | 0 mm | - | 0 W/m² | - |
| 1777544644 | 16.11° C | 95% | 1011.5 hPa | 0 mm | - | 0 W/m² | - |
| 1777544404 | 16.67° C | 95% | 1011.5 hPa | 0 mm | - | 0 W/m² | - |
| 1777543684 | 16.67° C | 95% | 1011.3 hPa | 0 mm | - | 0 W/m² | - |
| 1777543204 | 16.67° C | 95% | 1011.2 hPa | 0 mm | - | 0 W/m² | - |
| 1777542985 | 16.67° C | 95% | 1011.2 hPa | 0 mm | - | 0 W/m² | - |
| 1777542724 | 16.67° C | 95% | 1011.2 hPa | 0 mm | - | 0 W/m² | - |
| 1777540324 | 16.67° C | 94% | 1011.1 hPa | 0 mm | - | 0 W/m² | - |
| 1777539364 | 16.67° C | 94% | 1011 hPa | 0 mm | - | 0 W/m² | - |
| 1777536244 | 18.33° C | 95% | 1010.4 hPa | 0 mm | - | 0 W/m² | - |
* Rain latest hour (hover to see other rain measurements)
** Current wind speed in m/s (hover to see current wind gust speed)